Flag for U.S.A. Weather past 2 weeks in Providence, Rhode Island, U.S.A.

Now
74 °F

Partly sunny.


Feels Like: 77 °F
Forecast: 56 / 81 °F
Wind: 12 mph from Southeast

Location: Green State Airport

Current Time: May 25, 2015 at 2:20:58 PM

Latest Report: May 25, 2015 at 1:51 PM


Visibility: 10 mi

Pressure: 30.23 "Hg

Humidity: 56%

Dew point: 57 °F

Location of ProvidenceLocation

Historic Weather in Providence — Graph

°F

Providence temperature yesterday

Maximum temperature yesterday: 81 °F (at 1:51 PM)
Minimum temperature yesterday: 49 °F (at 1:51 AM)
Average temperature yesterday: 65 °F

Past Weeks' High & Low Weather Summary

 TemperatureHumidityPressure
High86 °F (May 10, 2:51 PM)100% (May 12, 1:51 AM)30.35 "Hg (May 12, 1:51 AM)
Low45 °F (May 21, 5:51 AM)18% (May 24, 3:51 PM)29.68 "Hg (May 12, 6:51 PM)
Average62 °F60%30.08 "Hg
* Reported May 10 12:51 PM — May 25 12:51 PM, Providence, Weather by CustomWeather, © 2015

Note: Actual official high and low records may vary slightly from our data, if they occured in-between our weather recording intervals... More about our weather records

Advertising

Providence weather history for previous 24 hours

 ConditionsComfort  
Time TempWeatherWind HumidityBarometerVisibility
12:51 PM
Mon, May 25
70 °FPartly sunny.10 mph64%30.26 "Hg10 mi
11:51 AM72 °FPartly sunny.8 mph61%30.26 "Hg10 mi
10:51 AM76 °FBroken clouds.12 mph50%30.26 "Hg10 mi
9:51 AM76 °FBroken clouds.12 mph48%30.26 "Hg10 mi
8:51 AM70 °FPartly sunny.7 mph55%30.27 "Hg10 mi
7:51 AM64 °FPartly sunny.3 mph68%30.27 "Hg10 mi
6:51 AM59 °FBroken clouds.5 mph75%30.27 "Hg10 mi
5:51 AM53 °FPartly cloudy.3 mph86%30.27 "Hg10 mi
4:51 AM52 °FClear.6 mph86%30.25 "Hg10 mi
3:51 AM56 °FClear.6 mph75%30.24 "Hg10 mi
2:51 AM58 °FClear.8 mph70%30.24 "Hg10 mi
1:51 AM58 °FClear.6 mph67%30.24 "Hg10 mi
12:51 AM60 °FClear.7 mph62%30.25 "Hg10 mi
11:51 PM
Sun, May 24
61 °FPassing clouds.12 mph60%30.25 "Hg10 mi
10:51 PM63 °FPassing clouds.14 mph56%30.25 "Hg10 mi
9:51 PM63 °FPassing clouds.12 mph58%30.25 "Hg10 mi
8:51 PM65 °FPartly sunny.13 mph54%30.24 "Hg10 mi
7:51 PM68 °FPartly sunny.14 mph49%30.23 "Hg10 mi
6:51 PM71 °FPartly sunny.13 mph44%30.22 "Hg10 mi
5:51 PM73 °FPartly sunny.16 mph40%30.21 "Hg10 mi
4:51 PM77 °FPartly sunny.18 mph24%30.20 "Hg10 mi
3:51 PM79 °FScattered clouds.16 mph18%30.20 "Hg10 mi
2:51 PM80 °FScattered clouds.17 mph20%30.21 "Hg10 mi
Weather by CustomWeather, © 2015

See weather overviewHow to use our weather pages